Date String (YYYY-MM-DD hh:mm:ss) UTC,Instrument flags,absolute air pressure of the measurement (hPa),sample flow rate (lpm),inlet stack bypass flow (lpm),air temperature of the measurement (°C),ambient temperature measured by the external sensor (°C),aerosol sample conditioner tube jacket temperature (°C),OPC LED temperature (°C),internal box temperature (°C),relative humidity of the measurement (%),span deviation,mass concentration of particles derived from Lorenz-Mie calculation of OPC scattering (μg/m³),mass concentration of particles derived from Lorenz-Mie calculation of OPC scattering (μg/m³),mass concentration of particles derived from Lorenz-Mie calculation of OPC scattering (μg/m³)
DateTimeUTC,F1_M11,P_M11,Q1_M11,Q2_M11,T1_M11,T2_M11,T3_M11,T4_M11,T5_M11,U1_M11,ZSPAN_M11,X0_M11,X2_M11,X1_M11
2023-10-13 06:00:00,SystemResetWarning,0827.7,5.00,000.00,026.9,025.3,000.0,035.3,028.6,15.3,0000.0,0002.97,0000.18,0000.04
2023-10-13 06:01:00,SystemResetWarning,0827.7,5.00,000.00,026.9,025.3,000.0,035.3,028.6,15.3,0000.0,0003.08,0000.19,0000.04
2023-10-13 06:02:00,SystemResetWarning,0827.6,5.00,000.00,026.9,025.3,000.0,035.3,028.6,15.3,0000.0,0003.06,0000.18,0000.04
2023-10-13 06:03:00,SystemResetWarning,0827.7,5.00,000.00,026.9,025.3,000.0,035.3,028.6,15.3,0000.0,0003.03,0000.18,0000.04
2023-10-13 06:04:00,SystemResetWarning,0827.6,4.99,000.00,026.9,025.3,000.0,035.3,028.6,15.3,0000.0,0002.14,0000.18,0000.04
2023-10-13 06:05:00,SystemResetWarning,0827.5,5.00,000.00,026.9,025.3,000.0,035.3,028.6,15.2,0000.0,0001.75,0000.18,0000.04
2023-10-13 06:06:00,SystemResetWarning,0827.6,5.00,000.00,026.9,025.3,000.0,035.3,028.6,15.1,0000.0,0001.81,0000.20,0000.04
2023-10-13 06:07:00,SystemResetWarning,0827.6,5.01,000.00,026.9,025.3,000.0,035.3,028.5,15.0,0000.0,0002.35,0000.20,0000.05
2023-10-13 06:08:00,SystemResetWarning,0827.7,5.01,000.00,026.9,025.3,000.0,035.3,028.5,15.0,0000.0,0002.47,0000.23,0000.05
2023-10-13 06:09:00,SystemResetWarning,0827.7,5.00,000.00,026.9,025.3,000.0,035.3,028.5,15.1,0000.0,0001.30,0000.26,0000.05
2023-10-13 06:10:00,SystemResetWarning,0827.7,5.00,000.00,026.8,025.3,000.0,035.3,028.5,15.0,0000.0,0001.38,0000.30,0000.06
2023-10-13 06:11:00,SystemResetWarning,0827.7,5.00,000.00,026.8,025.3,000.0,035.3,028.5,15.0,0000.0,0001.40,0000.30,0000.06
2023-10-13 06:12:00,SystemResetWarning,0827.7,5.00,000.00,026.8,025.3,000.0,035.3,028.5,15.0,0000.0,0001.44,0000.34,0000.07
2023-10-13 06:13:00,SystemResetWarning,0827.7,5.00,000.00,026.8,025.3,000.0,035.3,028.5,14.9,0000.0,0001.51,0000.37,0000.07
2023-10-13 06:14:00,SystemResetWarning,0827.7,5.00,000.00,026.8,025.3,000.0,035.3,028.5,15.0,0000.0,0001.54,0000.36,0000.07
2023-10-13 06:15:00,SystemResetWarning,0827.8,5.00,000.00,026.8,025.3,000.0,035.3,028.5,14.9,0000.0,0001.78,0000.34,0000.07
2023-10-13 06:16:00,SystemResetWarning,0827.8,4.99,000.00,026.9,025.3,000.0,035.3,028.5,14.9,0000.0,0001.88,0000.34,0000.07
2023-10-13 06:17:00,SystemResetWarning,0827.8,5.00,000.00,026.8,025.3,000.0,035.3,028.5,14.9,0000.0,0001.90,0000.35,0000.08
2023-10-13 06:18:00,SystemResetWarning,0827.8,5.00,000.00,026.8,025.3,000.0,035.3,028.5,14.9,0000.0,0001.39,0000.34,0000.08
2023-10-13 06:19:00,SystemResetWarning,0827.7,5.00,000.00,026.8,025.3,000.0,035.3,028.5,14.9,0000.0,0001.22,0000.32,0000.08
2023-10-13 06:20:00,SystemResetWarning,0827.8,5.00,000.00,026.8,025.3,000.0,035.3,028.5,14.9,0000.0,0001.18,0000.30,0000.08
2023-10-13 06:21:00,SystemResetWarning,0827.8,5.00,000.00,026.8,025.3,000.0,035.3,028.6,14.9,0000.0,0001.19,0000.30,0000.08
2023-10-13 06:22:00,SystemResetWarning,0827.8,5.01,000.00,026.8,025.3,000.0,035.3,028.5,14.9,0000.0,0001.21,0000.32,0000.08
2023-10-13 06:23:00,SystemResetWarning,0827.8,5.02,000.00,026.8,025.3,000.0,035.3,028.5,14.9,0000.0,0001.17,0000.30,0000.08
2023-10-13 06:24:00,SystemResetWarning,0827.7,5.00,000.00,026.8,025.3,000.0,035.3,028.5,14.9,0000.0,0001.14,0000.29,0000.08
2023-10-13 06:25:00,SystemResetWarning,0827.7,5.00,000.00,026.8,025.3,000.0,035.2,028.5,14.9,0000.0,0001.17,0000.29,0000.08
2023-10-13 06:26:00,SystemResetWarning,0827.8,5.00,000.00,026.8,025.3,000.0,035.2,028.5,15.0,0000.0,0000.87,0000.29,0000.08
2023-10-13 06:27:00,SystemResetWarning,0827.8,5.00,000.00,026.8,025.3,000.0,035.2,028.5,15.0,0000.0,0000.78,0000.28,0000.08
2023-10-13 06:28:00,SystemResetWarning,0827.8,4.99,000.00,026.8,025.3,000.0,035.2,028.5,15.0,0000.0,0000.72,0000.27,0000.08
2023-10-13 06:29:00,SystemResetWarning,0827.8,5.00,000.00,026.8,025.3,000.0,035.2,028.5,15.1,0000.0,0000.68,0000.26,0000.07
2023-10-13 06:30:00,SystemResetWarning,0827.8,5.00,000.00,026.8,025.3,000.0,035.2,028.5,15.1,0000.0,0000.66,0000.25,0000.08
2023-10-13 06:31:00,SystemResetWarning,0827.8,5.00,000.00,026.8,025.3,000.0,035.2,028.5,15.1,0000.0,0000.64,0000.24,0000.08
2023-10-13 06:32:00,SystemResetWarning,0827.8,4.99,000.00,026.8,025.3,000.0,035.2,028.5,15.1,0000.0,0000.52,0000.20,0000.08
2023-10-13 06:33:00,SystemResetWarning,0827.8,5.00,000.00,026.8,025.3,000.0,035.2,028.5,15.0,0000.0,0000.72,0000.17,0000.08
2023-10-13 06:34:00,SystemResetWarning,0827.8,5.00,000.00,026.8,025.3,000.0,035.2,028.5,15.0,0000.0,0001.57,0000.15,0000.09
2023-10-13 06:35:00,SystemResetWarning,0827.8,5.00,000.00,026.8,025.3,000.0,035.2,028.5,15.1,0000.0,0001.54,0000.15,0000.09
2023-10-13 06:36:00,SystemResetWarning,0827.8,5.00,000.00,026.8,025.3,000.0,035.2,028.5,15.1,0000.0,0001.50,0000.13,0000.09
2023-10-13 06:37:00,SystemResetWarning,0827.8,5.01,000.00,026.8,025.3,000.0,035.2,028.6,15.1,0000.0,0001.49,0000.13,0000.09
2023-10-13 06:38:00,SystemResetWarning,0827.9,5.00,000.00,026.8,025.3,000.0,035.3,028.6,15.1,0000.0,0002.24,0000.12,0000.09
2023-10-13 06:39:00,SystemResetWarning,0827.8,5.00,000.00,026.8,025.3,000.0,035.2,028.6,15.0,0000.0,0002.65,0000.11,0000.09
2023-10-13 06:40:00,SystemResetWarning,0827.9,5.00,000.00,026.8,025.3,000.0,035.2,028.6,15.0,0000.0,0002.73,0000.13,0000.09
2023-10-13 06:41:00,SystemResetWarning,0827.8,5.00,000.00,026.8,025.3,000.0,035.2,028.6,15.0,0000.0,0002.91,0000.17,0000.09
2023-10-13 06:42:00,SystemResetWarning,0827.8,5.00,000.00,026.8,025.3,000.0,035.2,028.6,15.0,0000.0,0002.95,0000.18,0000.09
2023-10-13 06:43:00,SystemResetWarning,0827.9,5.00,000.00,026.8,025.3,000.0,035.2,028.6,15.0,0000.0,0002.96,0000.18,0000.09
2023-10-13 06:44:00,SystemResetWarning,0827.9,4.99,000.00,026.8,025.3,000.0,035.2,028.6,15.0,0000.0,0002.89,0000.19,0000.09
2023-10-13 06:45:00,SystemResetWarning,0827.8,5.00,000.00,026.8,025.3,000.0,035.2,028.6,15.0,0000.0,0001.75,0000.18,0000.09
2023-10-13 06:46:00,SystemResetWarning,0827.8,5.00,000.00,026.8,025.3,000.0,035.2,028.6,15.0,0000.0,0001.70,0000.17,0000.08
2023-10-13 06:47:00,SystemResetWarning,0827.8,5.00,000.00,026.8,025.3,000.0,035.2,028.5,15.0,0000.0,0001.73,0000.18,0000.08
2023-10-13 06:48:00,SystemResetWarning,0827.8,5.00,000.00,026.8,025.3,000.0,035.3,028.6,15.0,0000.0,0003.09,0000.19,0000.08
2023-10-13 06:49:00,SystemResetWarning,0827.9,5.00,000.00,026.8,025.3,000.0,035.2,028.6,14.9,0000.0,0002.64,0000.20,0000.09
2023-10-13 06:50:00,SystemResetWarning,0827.8,5.00,000.00,026.8,025.4,000.0,035.2,028.6,14.9,0000.0,0002.18,0000.24,0000.09
2023-10-13 06:51:00,SystemResetWarning,0827.8,5.00,000.00,026.9,025.4,000.0,035.3,028.6,14.9,0000.0,0002.14,0000.24,0000.09
2023-10-13 06:52:00,SystemResetWarning,0827.8,5.00,000.00,026.9,025.4,000.0,035.2,028.6,14.9,0000.0,0001.97,0000.21,0000.10
2023-10-13 06:53:00,SystemResetWarning,0827.8,5.00,000.00,026.9,025.4,000.0,035.3,028.6,14.9,0000.0,0001.91,0000.19,0000.09
2023-10-13 06:54:00,SystemResetWarning,0827.9,5.00,000.00,026.9,025.4,000.0,035.3,028.6,14.8,0000.0,0001.90,0000.18,0000.09
2023-10-13 06:55:00,SystemResetWarning,0827.8,5.00,000.00,026.9,025.4,000.0,035.3,028.6,14.9,0000.0,0001.86,0000.17,0000.09
2023-10-13 06:56:00,SystemResetWarning,0827.9,5.00,000.00,026.9,025.4,000.0,035.3,028.6,14.9,0000.0,0001.83,0000.16,0000.09
2023-10-13 06:57:00,SystemResetWarning,0827.8,5.00,000.00,026.9,025.4,000.0,035.3,028.6,14.9,0000.0,0001.89,0000.18,0000.09
2023-10-13 06:58:00,SystemResetWarning,0827.9,5.00,000.00,026.9,025.4,000.0,035.3,028.6,14.9,0000.0,0001.95,0000.19,0000.09
2023-10-13 06:59:00,SystemResetWarning,0827.8,5.00,000.00,026.9,025.4,000.0,035.3,028.6,14.9,0000.0,0001.31,0000.20,0000.09
